Saint Bonnet de Bellac- Haute Vienne - France
Donnes mto: mercredi, 21/03/2012
Date Horaire Temp. E. Hum. E. P.atmo. Pluie Vent Direction Direction Ensoleilleme Solaire P. de rose Temp au vent Rafales
21/03/2012 00:00 3,3 C 79 % 1030,6 hPa 0,0 mm 0,0 km/h (0 Bft) NE 45 0 min 0 W/m 0,0 C 3,3 C 0,0 km/h (0 Bft)
21/03/2012 00:10 3,2 C 80 % 1030,5 hPa 0,0 mm 0,0 km/h (0 Bft) N-NE 22 0 min 0 W/m 0,1 C 3,2 C 0,0 km/h (0 Bft)
21/03/2012 00:20 3,1 C 80 % 1030,4 hPa 0,0 mm 0,0 km/h (0 Bft) N-NE 22 0 min 0 W/m -0,0 C 3,1 C 0,0 km/h (0 Bft)
21/03/2012 00:30 2,8 C 80 % 1030,3 hPa 0,0 mm 0,0 km/h (0 Bft) N-NE 22 0 min 0 W/m -0,3 C 2,8 C 0,0 km/h (0 Bft)
21/03/2012 00:40 2,3 C 81 % 1030,3 hPa 0,0 mm 0,0 km/h (0 Bft) N-NE 22 0 min 0 W/m -0,6 C 2,3 C 0,0 km/h (0 Bft)
21/03/2012 00:50 2,1 C 81 % 1030,1 hPa 0,0 mm 0,0 km/h (0 Bft) N-NE 22 0 min 0 W/m -0,8 C 2,1 C 0,0 km/h (0 Bft)
21/03/2012 01:00 1,9 C 82 % 1029,9 hPa 0,0 mm 0,0 km/h (0 Bft) N-NE 22 0 min 0 W/m -0,8 C 1,9 C 0,0 km/h (0 Bft)
21/03/2012 01:10 1,8 C 82 % 1029,9 hPa 0,0 mm 0,0 km/h (0 Bft) N-NE 22 0 min 0 W/m -0,9 C 1,8 C 0,0 km/h (0 Bft)
21/03/2012 01:20 1,8 C 83 % 1029,8 hPa 0,0 mm 0,0 km/h (0 Bft) N-NE 22 0 min 0 W/m -0,8 C 1,8 C 0,0 km/h (0 Bft)
21/03/2012 01:30 1,8 C 83 % 1029,8 hPa 0,0 mm 0,0 km/h (0 Bft) N-NE 22 0 min 0 W/m -0,8 C 1,8 C 0,0 km/h (0 Bft)
21/03/2012 01:40 1,8 C 84 % 1029,7 hPa 0,0 mm 0,0 km/h (0 Bft) N-NE 22 0 min 0 W/m -0,6 C 1,8 C 0,0 km/h (0 Bft)
21/03/2012 01:50 1,7 C 84 % 1029,6 hPa 0,0 mm 0,0 km/h (0 Bft) N-NE 22 0 min 0 W/m -0,7 C 1,7 C 0,0 km/h (0 Bft)
21/03/2012 02:02 1,6 C 84 % 1029,7 hPa 0,0 mm 0,0 km/h (0 Bft) N-NE 22 0 min 0 W/m -0,8 C 1,6 C 0,0 km/h (0 Bft)
21/03/2012 02:10 1,4 C 84 % 1029,6 hPa 0,0 mm 0,0 km/h (0 Bft) N-NE 22 0 min 0 W/m -1,0 C 1,4 C 0,0 km/h (0 Bft)
21/03/2012 02:20 1,2 C 85 % 1029,6 hPa 0,0 mm 0,0 km/h (0 Bft) N-NE 22 0 min 0 W/m -1,0 C 1,2 C 0,0 km/h (0 Bft)
21/03/2012 02:30 1,1 C 85 % 1029,5 hPa 0,0 mm 0,0 km/h (0 Bft) N-NE 22 0 min 0 W/m -1,1 C 1,1 C 0,0 km/h (0 Bft)
21/03/2012 02:40 1,1 C 86 % 1029,5 hPa 0,0 mm 0,0 km/h (0 Bft) N-NE 22 0 min 0 W/m -1,0 C 1,1 C 0,0 km/h (0 Bft)
21/03/2012 02:50 1,1 C 86 % 1029,4 hPa 0,0 mm 0,0 km/h (0 Bft) N-NE 22 0 min 0 W/m -1,0 C 1,1 C 0,0 km/h (0 Bft)
21/03/2012 03:00 0,9 C 86 % 1029,1 hPa 0,0 mm 0,0 km/h (0 Bft) N-NE 22 0 min 0 W/m -1,2 C 0,9 C 0,0 km/h (0 Bft)
21/03/2012 03:10 0,9 C 86 % 1029,0 hPa 0,0 mm 0,0 km/h (0 Bft) N-NE 22 0 min 0 W/m -1,2 C 0,9 C 0,0 km/h (0 Bft)
21/03/2012 03:20 1,1 C 87 % 1028,8 hPa 0,0 mm 0,0 km/h (0 Bft) N-NE 22 0 min 0 W/m -0,8 C 1,1 C 0,0 km/h (0 Bft)
21/03/2012 03:30 1,3 C 87 % 1028,8 hPa 0,0 mm 0,0 km/h (0 Bft) N-NE 22 0 min 0 W/m -0,6 C 1,3 C 0,0 km/h (0 Bft)
21/03/2012 03:40 1,4 C 87 % 1028,6 hPa 0,0 mm 0,0 km/h (0 Bft) N-NE 22 0 min 0 W/m -0,5 C 1,4 C 0,0 km/h (0 Bft)
21/03/2012 03:50 1,7 C 87 % 1028,5 hPa 0,0 mm 0,0 km/h (0 Bft) E 90 0 min 0 W/m -0,2 C 1,7 C 0,0 km/h (0 Bft)
21/03/2012 04:00 2,1 C 88 % 1028,4 hPa 0,0 mm 0,0 km/h (0 Bft) E 90 0 min 0 W/m 0,3 C 2,1 C 0,0 km/h (0 Bft)
21/03/2012 04:10 2,3 C 87 % 1028,5 hPa 0,0 mm 0,0 km/h (0 Bft) E 90 0 min 0 W/m 0,4 C 2,3 C 0,0 km/h (0 Bft)
21/03/2012 04:20 2,4 C 87 % 1028,5 hPa 0,0 mm 0,0 km/h (0 Bft) E-SE 112 0 min 0 W/m 0,5 C 2,4 C 3,6 km/h (1 Bft)
21/03/2012 04:30 2,4 C 87 % 1028,4 hPa 0,0 mm 0,0 km/h (0 Bft) E-SE 112 0 min 0 W/m 0,5 C 2,4 C 0,0 km/h (0 Bft)
21/03/2012 04:40 2,4 C 87 % 1028,1 hPa 0,0 mm 0,4 km/h (0 Bft) E 90 0 min 0 W/m 0,5 C 2,4 C 4,0 km/h (1 Bft)
21/03/2012 04:50 2,4 C 87 % 1028,1 hPa 0,0 mm 1,1 km/h (1 Bft) E 90 0 min 0 W/m 0,5 C 2,4 C 4,0 km/h (1 Bft)
21/03/2012 05:00 2,4 C 88 % 1028,2 hPa 0,0 mm 0,4 km/h (0 Bft) E 90 0 min 0 W/m 0,6 C 2,4 C 0,4 km/h (0 Bft)
21/03/2012 05:10 2,4 C 88 % 1028,0 hPa 0,0 mm 1,4 km/h (1 Bft) E-SE 112 0 min 0 W/m 0,6 C 2,4 C 4,0 km/h (1 Bft)
21/03/2012 05:20 2,5 C 88 % 1027,9 hPa 0,0 mm 1,4 km/h (1 Bft) E 90 0 min 0 W/m 0,7 C 2,5 C 3,6 km/h (1 Bft)
21/03/2012 05:30 2,6 C 88 % 1028,0 hPa 0,0 mm 2,9 km/h (1 Bft) E 90 0 min 0 W/m 0,8 C 2,6 C 7,6 km/h (2 Bft)
21/03/2012 05:40 2,6 C 88 % 1027,9 hPa 0,0 mm 1,4 km/h (1 Bft) E-NE 67 0 min 0 W/m 0,8 C 2,6 C 4,0 km/h (1 Bft)
21/03/2012 05:50 2,7 C 87 % 1027,9 hPa 0,0 mm 1,1 km/h (1 Bft) E-NE 67 0 min 0 W/m 0,8 C 2,7 C 3,6 km/h (1 Bft)
21/03/2012 06:00 2,8 C 87 % 1028,0 hPa 0,0 mm 3,2 km/h (1 Bft) E-SE 112 0 min 0 W/m 0,9 C 2,8 C 9,0 km/h (2 Bft)
21/03/2012 06:10 2,8 C 87 % 1027,9 hPa 0,0 mm 1,1 km/h (1 Bft) E-SE 112 0 min 0 W/m 0,9 C 2,8 C 3,6 km/h (1 Bft)
21/03/2012 06:20 2,8 C 87 % 1027,9 hPa 0,0 mm 4,7 km/h (1 Bft) E 90 0 min 0 W/m 0,9 C 1,7 C 4,7 km/h (1 Bft)
21/03/2012 06:30 2,9 C 88 % 1027,8 hPa 0,0 mm 3,6 km/h (1 Bft) E 90 0 min 0 W/m 1,1 C 2,9 C 3,6 km/h (1 Bft)
21/03/2012 06:40 3,1 C 88 % 1027,8 hPa 0,0 mm 1,4 km/h (1 Bft) E-SE 112 0 min 0 W/m 1,3 C 3,1 C 4,0 km/h (1 Bft)
21/03/2012 06:50 3,4 C 88 % 1027,8 hPa 0,0 mm 4,0 km/h (1 Bft) E-SE 112 0 min 0 W/m 1,6 C 3,4 C 6,1 km/h (2 Bft)
21/03/2012 07:00 3,6 C 88 % 1027,7 hPa 0,0 mm 1,1 km/h (1 Bft) E 90 0 min 0 W/m 1,8 C 3,6 C 4,3 km/h (1 Bft)
21/03/2012 07:10 3,7 C 88 % 1027,6 hPa 0,0 mm 0,0 km/h (0 Bft) E 90 2 min 0 W/m 1,9 C 3,7 C 0,0 km/h (0 Bft)
21/03/2012 07:20 3,8 C 87 % 1027,7 hPa 0,0 mm 0,7 km/h (0 Bft) E-SE 112 2 min 0 W/m 1,8 C 3,8 C 0,7 km/h (0 Bft)
21/03/2012 07:30 4,0 C 87 % 1027,6 hPa 0,0 mm 0,0 km/h (0 Bft) E-SE 112 2 min 0 W/m 2,0 C 4,0 C 0,0 km/h (0 Bft)
21/03/2012 07:40 4,3 C 86 % 1027,4 hPa 0,0 mm 0,0 km/h (0 Bft) SE 135 2 min 0 W/m 2,2 C 4,3 C 0,0 km/h (0 Bft)
21/03/2012 07:50 4,3 C 86 % 1027,4 hPa 0,0 mm 0,0 km/h (0 Bft) SE 135 2 min 0 W/m 2,2 C 4,3 C 0,0 km/h (0 Bft)
21/03/2012 08:00 4,3 C 86 % 1027,2 hPa 0,0 mm 0,0 km/h (0 Bft) SE 135 2 min 0 W/m 2,2 C 4,3 C 0,0 km/h (0 Bft)
21/03/2012 08:10 4,4 C 86 % 1027,2 hPa 0,0 mm 0,4 km/h (0 Bft) E-NE 67 2 min 0 W/m 2,3 C 4,4 C 2,9 km/h (1 Bft)
21/03/2012 08:20 4,4 C 86 % 1027,2 hPa 0,0 mm 0,0 km/h (0 Bft) E-NE 67 2 min 0 W/m 2,3 C 4,4 C 2,9 km/h (1 Bft)
21/03/2012 08:30 4,5 C 86 % 1027,3 hPa 0,0 mm 0,0 km/h (0 Bft) E 90 2 min 0 W/m 2,4 C 4,5 C 0,0 km/h (0 Bft)
21/03/2012 08:40 4,6 C 86 % 1027,0 hPa 0,1 mm 0,0 km/h (0 Bft) E 90 2 min 0 W/m 2,5 C 4,6 C 0,0 km/h (0 Bft)
21/03/2012 08:50 4,8 C 86 % 1027,1 hPa 0,0 mm 0,0 km/h (0 Bft) E 90 2 min 0 W/m 2,7 C 4,8 C 0,0 km/h (0 Bft)
21/03/2012 09:00 4,8 C 86 % 1027,1 hPa 0,0 mm 0,0 km/h (0 Bft) E 90 2 min 0 W/m 2,7 C 4,8 C 0,0 km/h (0 Bft)
21/03/2012 09:10 4,9 C 86 % 1027,1 hPa 0,0 mm 0,0 km/h (0 Bft) E 90 2 min 0 W/m 2,8 C 4,9 C 0,0 km/h (0 Bft)
21/03/2012 09:20 4,9 C 86 % 1027,1 hPa 0,0 mm 0,0 km/h (0 Bft) E-SE 112 2 min 0 W/m 2,8 C 4,9 C 0,0 km/h (0 Bft)
21/03/2012 09:30 5,1 C 86 % 1026,9 hPa 0,0 mm 0,0 km/h (0 Bft) E 90 2 min 0 W/m 3,0 C 5,1 C 0,0 km/h (0 Bft)
21/03/2012 09:40 5,1 C 86 % 1026,9 hPa 0,0 mm 0,4 km/h (0 Bft) E-NE 67 2 min 0 W/m 3,0 C 5,1 C 3,6 km/h (1 Bft)
21/03/2012 09:50 5,3 C 86 % 1026,8 hPa 0,0 mm 0,4 km/h (0 Bft) E-NE 67 2 min 0 W/m 3,2 C 5,3 C 2,9 km/h (1 Bft)
21/03/2012 10:00 5,5 C 87 % 1026,8 hPa 0,0 mm 0,4 km/h (0 Bft) N-NE 22 2 min 0 W/m 3,5 C 5,5 C 0,4 km/h (0 Bft)
21/03/2012 10:10 5,7 C 87 % 1026,7 hPa 0,0 mm 0,0 km/h (0 Bft) N-NE 22 2 min 0 W/m 3,7 C 5,7 C 0,0 km/h (0 Bft)
21/03/2012 10:20 5,9 C 87 % 1026,8 hPa 0,0 mm 0,0 km/h (0 Bft) N-NE 22 2 min 0 W/m 3,9 C 5,9 C 0,0 km/h (0 Bft)
21/03/2012 10:30 6,2 C 87 % 1026,6 hPa 0,0 mm 1,4 km/h (1 Bft) N-NE 22 2 min 0 W/m 4,2 C 6,2 C 1,4 km/h (1 Bft)
21/03/2012 10:40 6,6 C 87 % 1026,6 hPa 0,0 mm 0,4 km/h (0 Bft) N-NE 22 2 min 0 W/m 4,6 C 6,6 C 2,9 km/h (1 Bft)
21/03/2012 10:50 7,0 C 87 % 1026,5 hPa 0,0 mm 0,0 km/h (0 Bft) NE 45 2 min 0 W/m 5,0 C 7,0 C 0,0 km/h (0 Bft)
21/03/2012 11:00 7,4 C 87 % 1026,5 hPa 0,0 mm 3,2 km/h (1 Bft) NE 45 2 min 0 W/m 5,4 C 7,4 C 4,0 km/h (1 Bft)
21/03/2012 11:10 7,8 C 85 % 1026,3 hPa 0,0 mm 5,4 km/h (2 Bft) NE 45 2 min 0 W/m 5,4 C 7,1 C 7,2 km/h (2 Bft)
21/03/2012 11:20 8,1 C 84 % 1026,3 hPa 0,0 mm 2,9 km/h (1 Bft) NE 45 2 min 0 W/m 5,6 C 8,1 C 4,0 km/h (1 Bft)
21/03/2012 11:30 8,3 C 84 % 1026,3 hPa 0,0 mm 2,9 km/h (1 Bft) E-NE 67 2 min 0 W/m 5,8 C 8,3 C 2,9 km/h (1 Bft)
21/03/2012 11:40 8,6 C 84 % 1026,3 hPa 0,0 mm 2,5 km/h (1 Bft) NE 45 2 min 0 W/m 6,1 C 8,6 C 3,6 km/h (1 Bft)
21/03/2012 11:50 8,9 C 83 % 1026,1 hPa 0,0 mm 4,0 km/h (1 Bft) NE 45 2 min 0 W/m 6,2 C 8,9 C 6,5 km/h (2 Bft)
21/03/2012 12:00 9,2 C 82 % 1026,1 hPa 0,0 mm 2,9 km/h (1 Bft) NE 45 2 min 0 W/m 6,3 C 9,2 C 4,0 km/h (1 Bft)
21/03/2012 12:10 9,5 C 82 % 1026,1 hPa 0,0 mm 0,0 km/h (0 Bft) N-NE 22 2 min 0 W/m 6,6 C 9,5 C 0,0 km/h (0 Bft)
21/03/2012 12:20 9,8 C 82 % 1026,0 hPa 0,0 mm 0,4 km/h (0 Bft) NE 45 2 min 0 W/m 6,9 C 9,8 C 3,6 km/h (1 Bft)
21/03/2012 12:30 10,1 C 82 % 1025,9 hPa 0,0 mm 1,1 km/h (1 Bft) N-NE 22 2 min 0 W/m 7,2 C 10,1 C 4,0 km/h (1 Bft)
21/03/2012 12:40 10,7 C 80 % 1025,6 hPa 0,0 mm 5,4 km/h (2 Bft) NE 45 2 min 0 W/m 7,4 C 10,7 C 7,9 km/h (2 Bft)
21/03/2012 12:50 11,6 C 79 % 1025,5 hPa 0,0 mm 7,6 km/h (2 Bft) N-NE 22 2 min 0 W/m 8,1 C 11,6 C 10,4 km/h (2 Bft)
21/03/2012 13:00 12,1 C 76 % 1025,3 hPa 0,0 mm 4,3 km/h (1 Bft) N-NE 22 2 min 0 W/m 8,0 C 12,1 C 8,3 km/h (2 Bft)
21/03/2012 13:10 12,6 C 75 % 1025,3 hPa 0,0 mm 2,9 km/h (1 Bft) N-NE 22 2 min 0 W/m 8,3 C 12,6 C 2,9 km/h (1 Bft)
21/03/2012 13:20 13,4 C 75 % 1025,0 hPa 0,0 mm 10,4 km/h (2 Bft) N-NE 22 2 min 0 W/m 9,1 C 13,4 C 16,9 km/h (3 Bft)
21/03/2012 13:30 14,2 C 72 % 1025,0 hPa 0,0 mm 7,2 km/h (2 Bft) N-NE 22 2 min 0 W/m 9,2 C 14,2 C 10,8 km/h (2 Bft)
21/03/2012 13:40 14,8 C 70 % 1024,7 hPa 0,0 mm 4,7 km/h (1 Bft) N-NE 22 2 min 0 W/m 9,4 C 14,8 C 6,1 km/h (2 Bft)
21/03/2012 13:50 15,3 C 69 % 1024,7 hPa 0,0 mm 6,8 km/h (2 Bft) N-NE 22 2 min 0 W/m 9,6 C 15,3 C 11,5 km/h (2 Bft)
21/03/2012 14:00 15,6 C 66 % 1024,3 hPa 0,0 mm 5,4 km/h (2 Bft) N-NE 22 2 min 0 W/m 9,3 C 15,6 C 8,6 km/h (2 Bft)
21/03/2012 14:10 15,4 C 65 % 1024,2 hPa 0,0 mm 6,8 km/h (2 Bft) N-NE 22 2 min 0 W/m 8,9 C 15,4 C 9,0 km/h (2 Bft)
21/03/2012 14:20 15,3 C 66 % 1023,8 hPa 0,0 mm 7,9 km/h (2 Bft) NE 45 2 min 0 W/m 9,0 C 15,3 C 13,3 km/h (3 Bft)
21/03/2012 14:30 15,3 C 66 % 1023,9 hPa 0,0 mm 5,8 km/h (2 Bft) NE 45 2 min 0 W/m 9,0 C 15,3 C 9,0 km/h (2 Bft)
21/03/2012 14:40 15,4 C 65 % 1023,6 hPa 0,0 mm 10,1 km/h (2 Bft) NE 45 2 min 0 W/m 8,9 C 15,4 C 11,9 km/h (2 Bft)
21/03/2012 14:50 15,3 C 65 % 1023,4 hPa 0,0 mm 7,9 km/h (2 Bft) N 360 2 min 0 W/m 8,8 C 15,3 C 9,4 km/h (2 Bft)
21/03/2012 15:00 15,3 C 66 % 1023,1 hPa 0,0 mm 5,0 km/h (1 Bft) N-NE 22 2 min 0 W/m 9,0 C 15,3 C 11,5 km/h (2 Bft)
21/03/2012 15:10 15,3 C 66 % 1022,9 hPa 0,0 mm 3,2 km/h (1 Bft) NE 45 2 min 0 W/m 9,0 C 15,3 C 4,3 km/h (1 Bft)
21/03/2012 15:20 15,3 C 67 % 1023,0 hPa 0,0 mm 7,2 km/h (2 Bft) E-NE 67 2 min 0 W/m 9,2 C 15,3 C 14,0 km/h (3 Bft)
21/03/2012 15:30 15,3 C 67 % 1023,1 hPa 0,0 mm 0,0 km/h (0 Bft) NE 45 2 min 0 W/m 9,2 C 15,3 C 4,0 km/h (1 Bft)
21/03/2012 15:40 15,4 C 67 % 1023,0 hPa 0,0 mm 5,8 km/h (2 Bft) NE 45 2 min 0 W/m 9,3 C 15,4 C 6,1 km/h (2 Bft)
21/03/2012 15:50 15,5 C 67 % 1022,9 hPa 0,0 mm 4,7 km/h (1 Bft) NE 45 2 min 0 W/m 9,4 C 15,5 C 9,4 km/h (2 Bft)
21/03/2012 16:00 15,5 C 65 % 1022,9 hPa 0,0 mm 2,5 km/h (1 Bft) NE 45 2 min 0 W/m 8,9 C 15,5 C 6,1 km/h (2 Bft)
21/03/2012 16:10 15,6 C 66 % 1022,9 hPa 0,0 mm 4,7 km/h (1 Bft) E-NE 67 2 min 0 W/m 9,3 C 15,6 C 8,3 km/h (2 Bft)
21/03/2012 16:20 15,6 C 66 % 1022,9 hPa 0,0 mm 1,4 km/h (1 Bft) E-NE 67 2 min 0 W/m 9,3 C 15,6 C 3,6 km/h (1 Bft)
21/03/2012 16:30 15,6 C 66 % 1022,7 hPa 0,0 mm 4,7 km/h (1 Bft) N-NE 22 2 min 0 W/m 9,3 C 15,6 C 9,7 km/h (2 Bft)
21/03/2012 16:40 15,5 C 66 % 1022,6 hPa 0,0 mm 0,7 km/h (0 Bft) N-NE 22 2 min 0 W/m 9,2 C 15,5 C 3,2 km/h (1 Bft)
21/03/2012 16:50 15,4 C 66 % 1022,6 hPa 0,0 mm 0,4 km/h (0 Bft) N 360 2 min 0 W/m 9,1 C 15,4 C 3,2 km/h (1 Bft)
21/03/2012 17:00 15,4 C 67 % 1022,6 hPa 0,0 mm 0,0 km/h (0 Bft) N 360 2 min 0 W/m 9,3 C 15,4 C 0,0 km/h (0 Bft)
21/03/2012 17:10 15,3 C 67 % 1022,5 hPa 0,0 mm 0,0 km/h (0 Bft) N 360 2 min 0 W/m 9,2 C 15,3 C 0,0 km/h (0 Bft)
21/03/2012 17:20 15,1 C 67 % 1022,5 hPa 0,0 mm 0,0 km/h (0 Bft) N-NE 22 2 min 0 W/m 9,0 C 15,1 C 0,0 km/h (0 Bft)
21/03/2012 17:30 14,9 C 68 % 1022,6 hPa 0,0 mm 0,0 km/h (0 Bft) NE 45 2 min 0 W/m 9,0 C 14,9 C 0,0 km/h (0 Bft)
21/03/2012 17:40 14,8 C 68 % 1022,7 hPa 0,0 mm 0,0 km/h (0 Bft) NE 45 2 min 0 W/m 9,0 C 14,8 C 0,0 km/h (0 Bft)
21/03/2012 17:50 14,8 C 69 % 1023,0 hPa 0,0 mm 10,1 km/h (2 Bft) E-SE 112 2 min 0 W/m 9,2 C 14,8 C 13,0 km/h (3 Bft)
21/03/2012 18:00 14,6 C 70 % 1023,3 hPa 0,1 mm 4,0 km/h (1 Bft) SE 135 2 min 0 W/m 9,2 C 14,6 C 8,6 km/h (2 Bft)
21/03/2012 18:10 13,9 C 71 % 1023,5 hPa 0,0 mm 4,3 km/h (1 Bft) S-SE 157 2 min 0 W/m 8,7 C 13,9 C 8,3 km/h (2 Bft)
21/03/2012 18:20 13,5 C 72 % 1023,6 hPa 0,0 mm 3,2 km/h (1 Bft) S 180 2 min 0 W/m 8,6 C 13,5 C 4,3 km/h (1 Bft)
21/03/2012 18:30 13,1 C 74 % 1023,8 hPa 0,0 mm 2,2 km/h (1 Bft) S 180 2 min 0 W/m 8,6 C 13,1 C 3,6 km/h (1 Bft)
21/03/2012 18:40 12,8 C 76 % 1023,9 hPa 0,1 mm 4,3 km/h (1 Bft) S-SO 202 2 min 0 W/m 8,7 C 12,8 C 4,3 km/h (1 Bft)
21/03/2012 18:50 12,5 C 76 % 1023,8 hPa 0,0 mm 0,0 km/h (0 Bft) SE 135 2 min 0 W/m 8,4 C 12,5 C 3,6 km/h (1 Bft)
21/03/2012 19:00 12,2 C 76 % 1023,6 hPa 0,0 mm 0,0 km/h (0 Bft) SE 135 2 min 0 W/m 8,1 C 12,2 C 0,0 km/h (0 Bft)
21/03/2012 19:10 11,9 C 77 % 1023,5 hPa 0,0 mm 0,0 km/h (0 Bft) SE 135 0 min 0 W/m 8,0 C 11,9 C 0,0 km/h (0 Bft)
21/03/2012 19:20 11,8 C 78 % 1023,5 hPa 0,0 mm 0,0 km/h (0 Bft) E-SE 112 0 min 0 W/m 8,1 C 11,8 C 0,0 km/h (0 Bft)
21/03/2012 19:30 11,8 C 78 % 1023,6 hPa 0,0 mm 1,4 km/h (1 Bft) S-SE 157 0 min 0 W/m 8,1 C 11,8 C 1,4 km/h (1 Bft)
21/03/2012 19:40 11,7 C 78 % 1023,4 hPa 0,0 mm 0,0 km/h (0 Bft) E-SE 112 0 min 0 W/m 8,0 C 11,7 C 0,0 km/h (0 Bft)
21/03/2012 19:50 11,6 C 79 % 1023,2 hPa 0,0 mm 0,0 km/h (0 Bft) E 90 0 min 0 W/m 8,1 C 11,6 C 0,0 km/h (0 Bft)
21/03/2012 20:00 11,4 C 80 % 1023,1 hPa 0,0 mm 0,0 km/h (0 Bft) E 90 0 min 0 W/m 8,1 C 11,4 C 0,0 km/h (0 Bft)
21/03/2012 20:10 11,3 C 79 % 1023,0 hPa 0,0 mm 0,0 km/h (0 Bft) E 90 0 min 0 W/m 7,8 C 11,3 C 0,0 km/h (0 Bft)
21/03/2012 20:20 11,2 C 80 % 1023,1 hPa 0,0 mm 0,0 km/h (0 Bft) E 90 0 min 0 W/m 7,9 C 11,2 C 0,0 km/h (0 Bft)
21/03/2012 20:30 11,2 C 80 % 1023,1 hPa 0,0 mm 1,4 km/h (1 Bft) E 90 0 min 0 W/m 7,9 C 11,2 C 3,6 km/h (1 Bft)
21/03/2012 20:40 11,2 C 80 % 1023,2 hPa 0,0 mm 0,0 km/h (0 Bft) E 90 0 min 0 W/m 7,9 C 11,2 C 0,0 km/h (0 Bft)
21/03/2012 20:50 11,2 C 80 % 1023,1 hPa 0,0 mm 1,4 km/h (1 Bft) E-NE 67 0 min 0 W/m 7,9 C 11,2 C 4,3 km/h (1 Bft)
21/03/2012 21:00 11,1 C 80 % 1023,0 hPa 0,0 mm 0,0 km/h (0 Bft) E-NE 67 0 min 0 W/m 7,8 C 11,1 C 4,3 km/h (1 Bft)
21/03/2012 21:10 11,1 C 80 % 1023,1 hPa 0,0 mm 0,0 km/h (0 Bft) E 90 0 min 0 W/m 7,8 C 11,1 C 0,0 km/h (0 Bft)
21/03/2012 21:20 11,2 C 79 % 1023,2 hPa 0,0 mm 0,4 km/h (0 Bft) E-NE 67 0 min 0 W/m 7,7 C 11,2 C 3,6 km/h (1 Bft)
21/03/2012 21:30 11,4 C 79 % 1023,3 hPa 0,0 mm 4,0 km/h (1 Bft) E 90 0 min 0 W/m 7,9 C 11,4 C 8,3 km/h (2 Bft)
21/03/2012 21:40 11,4 C 78 % 1023,1 hPa 0,0 mm 2,5 km/h (1 Bft) E-NE 67 0 min 0 W/m 7,7 C 11,4 C 4,3 km/h (1 Bft)
21/03/2012 21:50 11,5 C 78 % 1023,0 hPa 0,0 mm 0,4 km/h (0 Bft) E-NE 67 0 min 0 W/m 7,8 C 11,5 C 0,4 km/h (0 Bft)
21/03/2012 22:00 11,4 C 78 % 1023,0 hPa 0,0 mm 0,0 km/h (0 Bft) E-NE 67 0 min 0 W/m 7,7 C 11,4 C 0,0 km/h (0 Bft)
21/03/2012 22:10 11,4 C 78 % 1022,9 hPa 0,0 mm 0,0 km/h (0 Bft) E-NE 67 0 min 0 W/m 7,7 C 11,4 C 0,0 km/h (0 Bft)
21/03/2012 22:20 11,4 C 77 % 1022,8 hPa 0,0 mm 0,0 km/h (0 Bft) E-NE 67 0 min 0 W/m 7,5 C 11,4 C 0,0 km/h (0 Bft)
21/03/2012 22:30 11,4 C 77 % 1022,9 hPa 0,0 mm 0,0 km/h (0 Bft) E 90 0 min 0 W/m 7,5 C 11,4 C 0,0 km/h (0 Bft)
21/03/2012 22:40 11,4 C 77 % 1022,9 hPa 0,0 mm 0,0 km/h (0 Bft) E 90 0 min 0 W/m 7,5 C 11,4 C 0,0 km/h (0 Bft)
21/03/2012 22:50 11,3 C 76 % 1022,7 hPa 0,0 mm 1,1 km/h (1 Bft) NE 45 0 min 0 W/m 7,2 C 11,3 C 3,6 km/h (1 Bft)
_ Min-Heure 03:10 16:00 17:20 - 22:40 - - - - 03:10 03:10 22:40
Minimum _ 0,9 C 65 % 1022,5 hPa - 0,0 km/h (0 Bft) - - - - -1,2 C 0,9 C 0,0 km/h (0 Bft)
_ Max-Heure 16:30 07:10 00:00 18:40 13:20 - - 19:00 22:50 13:50 16:30 13:20
Maximum _ 15,6 C 88 % 1030,6 hPa 0,1 mm 10,4 km/h
N-NE (2 Bft)
- - 2 min 0 W/m 9,6 C 15,6 C 16,9 km/h
N-NE (3 Bft)
Moyenne _ 8,2 C 80 % 1025,9 hPa #0,3 mm 1,7 km/h (1 Bft) N-NE - #2:24 h 0 W/m 4,8 C 8,1 C 3,1 km/h (1 Bft)
Saint Bonnet de Bellac- Haute Vienne - France